This is the latest recevied weather packets stored in our database for station/object OE-11344. If no packets are shown the sender has not sent any weather packets the latest 10 day(s).
| Time | Temp. | Humidity | Pressure | Rain* | Wind** | Luminosity | Snow |
|---|---|---|---|---|---|---|---|
| 1787639112 | 14.44° C | 66% | 848.2 hPa | 1.27 mm | - | 12 W/m² | - |
| 1787638284 | 14.44° C | 66% | 848.7 hPa | 1.27 mm | - | 12 W/m² | - |
| 1787637912 | 14.44° C | 66% | 848.5 hPa | 1.02 mm | - | 12 W/m² | - |
| 1787637312 | 14.44° C | 66% | 848.4 hPa | 0.51 mm | - | 12 W/m² | - |
| 1787636484 | 14.44° C | 64% | 848.5 hPa | 0.51 mm | - | 12 W/m² | - |
| 1787636111 | 15° C | 64% | 848.4 hPa | 0.25 mm | - | 12 W/m² | - |
| 1787635511 | 15° C | 62% | 848.3 hPa | 0.25 mm | - | 12 W/m² | - |
| 1787634685 | 15° C | 63% | 848.3 hPa | 0 mm | - | 6 W/m² | - |
| 1787634312 | 15.56° C | 60% | 848.1 hPa | 0 mm | - | 6 W/m² | - |
| 1787633712 | 16.11° C | 57% | 848.1 hPa | 0 mm | - | 0 W/m² | - |
| 1787632885 | 16.11° C | 54% | 848.4 hPa | 0 mm | - | 0 W/m² | - |
| 1787632512 | 16.11° C | 55% | 848 hPa | 0 mm | - | 0 W/m² | - |
| 1787631912 | 16.11° C | 54% | 848.4 hPa | 0 mm | - | 0 W/m² | - |
| 1787631085 | 16.11° C | 53% | 848.1 hPa | 0 mm | - | 0 W/m² | - |
| 1787630712 | 16.11° C | 54% | 848 hPa | 0 mm | - | 0 W/m² | - |
| 1787630112 | 16.11° C | 53% | 848.3 hPa | 0 mm | - | 0 W/m² | - |
| 1787629512 | 16.11° C | 52% | 848.5 hPa | 0 mm | - | 0 W/m² | - |
| 1787628912 | 16.11° C | 53% | 848.4 hPa | 0 mm | - | 0 W/m² | - |
| 1787628311 | 16.11° C | 52% | 848.3 hPa | 0 mm | - | 0 W/m² | - |
| 1787627484 | 16.11° C | 53% | 848.7 hPa | 0 mm | - | 0 W/m² | - |
| 1787627111 | 16.11° C | 53% | 848.9 hPa | 0 mm | - | 0 W/m² | - |
| 1787626512 | 15.56° C | 54% | 848.8 hPa | 0 mm | - | 0 W/m² | - |
| 1787625684 | 15.56° C | 54% | 848.9 hPa | 0 mm | - | 0 W/m² | - |
| 1787625318 | 15.56° C | 56% | 848.9 hPa | 0 mm | - | 0 W/m² | - |
| 1787624711 | 15.56° C | 55% | 848.9 hPa | 0 mm | - | 0 W/m² | - |
* Rain latest hour (hover to see other rain measurements)
** Current wind speed in m/s (hover to see current wind gust speed)